When you browse on this site, cookies collect data to enhance your experience and personalize the content and advertising you see.
Visit our Privacy Policy to learn more. By continuing to use the site, you agree to this use of cookies and data.
  • In France
  • List of Countries
  • For 7 days
  • Water Temperature
  • Satellite Maps
  • Weather Map
  • Weather Widgets
  • user-avatar
    Login

    Hourly Weather Djelfa

    Today, 20 March, Wednesday

    Time Temperature Precipitation Wind Pressure Humidity
    00:00 +2°C° 0 mm 5 mps 663 mmHg 82%
    01:00 +2°C° 0.1 mm 5 mps 663 mmHg 82%
    02:00 +2°C° 0.1 mm 6 mps 663 mmHg 82%
    03:00 +2°C° 0.1 mm 6 mps 663 mmHg 82%
    04:00 +2°C° 0.1 mm 6 mps 663 mmHg 82%
    05:00 +1°C° 0.1 mm 6 mps 664 mmHg 83%
    06:00 +1°C° 0.1 mm 6 mps 664 mmHg 83%
    07:00 +2°C° 0.1 mm 6 mps 664 mmHg 79%
    08:00 +3°C° 0.1 mm 6 mps 664 mmHg 74%
    09:00 +3°C° 0.1 mm 6 mps 665 mmHg 69%
    10:00 +4°C° 0 mm 7 mps 665 mmHg 63%
    11:00 +5°C° 0 mm 7 mps 665 mmHg 57%
    12:00 +6°C° 0 mm 8 mps 665 mmHg 51%
    13:00 +6°C° 0.1 mm 8 mps 665 mmHg 48%
    14:00 +7°C° 0.1 mm 8 mps 664 mmHg 45%
    15:00 +7°C° 0.1 mm 8 mps 664 mmHg 42%
    16:00 +6°C° 0.1 mm 8 mps 664 mmHg 44%
    17:00 +6°C° 0.1 mm 8 mps 664 mmHg 46%
    18:00 +5°C° 0.1 mm 8 mps 664 mmHg 48%
    19:00 +4°C° 0 mm 8 mps 664 mmHg 53%
    20:00 +3°C° 0 mm 7 mps 665 mmHg 59%
    21:00 +2°C° 0 mm 7 mps 665 mmHg 64%
    22:00 0°C° 0 mm 7 mps 665 mmHg 70%
    23:00 +1°C° 0 mm 6 mps 665 mmHg 75%

    Tomorrow, 21 March, Thursday

    Time Temperature Precipitation Wind Pressure Humidity
    00:00 -1°C° 0 mm 6 mps 665 mmHg 81%
    01:00 -1°C° 0 mm 6 mps 664 mmHg 85%
    02:00 -2°C° 0 mm 6 mps 664 mmHg 89%
    03:00 -2°C° 0 mm 6 mps 664 mmHg 93%
    04:00 -2°C° 0 mm 7 mps 663 mmHg 92%
    05:00 -2°C° 0 mm 7 mps 663 mmHg 91%
    06:00 -2°C° 0 mm 7 mps 663 mmHg 91%
    07:00 -1°C° 0 mm 7 mps 664 mmHg 84%
    08:00 0°C° 0 mm 8 mps 664 mmHg 77%
    09:00 +1°C° 0 mm 8 mps 664 mmHg 70%
    10:00 +2°C° 0 mm 9 mps 664 mmHg 66%
    11:00 +3°C° 0 mm 9 mps 664 mmHg 62%
    12:00 +5°C° 0 mm 10 mps 664 mmHg 58%
    13:00 +5°C° 0.2 mm 10 mps 663 mmHg 60%
    14:00 +5°C° 0.2 mm 10 mps 663 mmHg 62%
    15:00 +5°C° 0.2 mm 10 mps 662 mmHg 64%
    16:00 +5°C° 0.1 mm 10 mps 662 mmHg 68%
    17:00 +5°C° 0.1 mm 10 mps 662 mmHg 72%
    18:00 +3°C° 0.1 mm 10 mps 662 mmHg 76%
    19:00 +3°C° 0 mm 10 mps 663 mmHg 80%
    20:00 +3°C° 0 mm 10 mps 663 mmHg 83%
    21:00 +3°C° 0 mm 9 mps 663 mmHg 86%
    22:00 +3°C° 0 mm 9 mps 663 mmHg 86%
    23:00 +3°C° 0 mm 9 mps 663 mmHg 87%

    Day after tomorrow, 22 March, Friday

    Time Temperature Precipitation Wind Pressure Humidity
    00:00 +3°C° 0 mm 9 mps 663 mmHg 87%
    01:00 +3°C° 0 mm 9 mps 663 mmHg 88%
    02:00 +3°C° 0 mm 9 mps 663 mmHg 90%
    03:00 +2°C° 0 mm 8 mps 663 mmHg 91%
    04:00 +2°C° 0 mm 8 mps 663 mmHg 91%
    05:00 +2°C° 0 mm 8 mps 663 mmHg 91%
    06:00 +2°C° 0 mm 8 mps 663 mmHg 90%
    07:00 +4°C° 0 mm 8 mps 664 mmHg 87%
    08:00 +5°C° 0 mm 8 mps 664 mmHg 83%
    09:00 +5°C° 0 mm 8 mps 664 mmHg 79%
    10:00 +6°C° 0 mm 8 mps 664 mmHg 73%
    11:00 +7°C° 0 mm 8 mps 664 mmHg 67%
    12:00 +10°C° 0 mm 8 mps 665 mmHg 61%
    13:00 +10°C° 0 mm 8 mps 664 mmHg 59%
    14:00 +10°C° 0 mm 9 mps 664 mmHg 57%
    15:00 +11°C° 0 mm 9 mps 664 mmHg 56%
    16:00 +10°C° 0 mm 8 mps 664 mmHg 62%
    17:00 +9°C° 0 mm 8 mps 664 mmHg 68%
    18:00 +8°C° 0 mm 7 mps 664 mmHg 74%
    19:00 +7°C° 0 mm 6 mps 665 mmHg 76%
    20:00 +7°C° 0 mm 5 mps 665 mmHg 78%
    21:00 +7°C° 0 mm 4 mps 666 mmHg 80%
    22:00 +6°C° 0.1 mm 4 mps 666 mmHg 83%
    23:00 +7°C° 0.1 mm 3 mps 666 mmHg 85%

    23 March, Saturday

    Time Temperature Precipitation Wind Pressure Humidity
    00:00 +7°C° 0.1 mm 3 mps 666 mmHg 88%
    01:00 +6°C° 0.1 mm 2 mps 666 mmHg 89%
    02:00 +6°C° 0.1 mm 2 mps 665 mmHg 91%
    03:00 +6°C° 0.1 mm 2 mps 665 mmHg 92%
    04:00 +5°C° 0 mm 2 mps 665 mmHg 92%
    05:00 +6°C° 0 mm 1 mps 665 mmHg 92%
    06:00 +6°C° 0 mm 1 mps 665 mmHg 92%
    07:00 +7°C° 0 mm 1 mps 666 mmHg 86%
    08:00 +8°C° 0 mm 1 mps 666 mmHg 80%
    09:00 +8°C° 0 mm 1 mps 666 mmHg 74%
    10:00 +10°C° 0.1 mm 1 mps 666 mmHg 67%
    11:00 +10°C° 0.1 mm 2 mps 666 mmHg 60%
    12:00 +12°C° 0.1 mm 2 mps 666 mmHg 53%
    13:00 +12°C° 0.2 mm 2 mps 666 mmHg 51%
    14:00 +13°C° 0.2 mm 2 mps 665 mmHg 49%
    15:00 +13°C° 0.2 mm 1 mps 665 mmHg 47%
    16:00 +13°C° 0.2 mm 2 mps 665 mmHg 48%
    17:00 +13°C° 0.2 mm 2 mps 665 mmHg 49%
    18:00 +12°C° 0.2 mm 3 mps 665 mmHg 49%
    19:00 +11°C° 0 mm 3 mps 665 mmHg 51%
    20:00 +11°C° 0 mm 4 mps 666 mmHg 53%
    21:00 +11°C° 0 mm 4 mps 666 mmHg 55%
    22:00 +9°C° 0 mm 5 mps 666 mmHg 57%
    23:00 +9°C° 0 mm 5 mps 665 mmHg 59%

    24 March, Sunday

    Time Temperature Precipitation Wind Pressure Humidity
    00:00 +8°C° 0 mm 6 mps 665 mmHg 60%
    01:00 +8°C° 0.1 mm 6 mps 665 mmHg 61%
    02:00 +8°C° 0.1 mm 6 mps 665 mmHg 62%
    03:00 +7°C° 0.1 mm 6 mps 665 mmHg 63%
    04:00 +7°C° 0 mm 6 mps 665 mmHg 65%
    05:00 +6°C° 0 mm 5 mps 664 mmHg 67%
    06:00 +6°C° 0 mm 4 mps 664 mmHg 69%
    07:00 +7°C° 0 mm 5 mps 665 mmHg 62%
    08:00 +8°C° 0 mm 6 mps 665 mmHg 56%
    09:00 +10°C° 0 mm 7 mps 666 mmHg 50%
    10:00 +11°C° 0 mm 7 mps 666 mmHg 46%
    11:00 +12°C° 0 mm 7 mps 666 mmHg 42%
    12:00 +14°C° 0 mm 7 mps 666 mmHg 38%
    13:00 +14°C° 0 mm 6 mps 666 mmHg 38%
    14:00 +14°C° 0 mm 6 mps 665 mmHg 37%
    15:00 +14°C° 0 mm 6 mps 665 mmHg 37%
    16:00 +14°C° 0 mm 6 mps 665 mmHg 40%
    17:00 +13°C° 0 mm 5 mps 664 mmHg 43%
    18:00 +12°C° 0 mm 5 mps 664 mmHg 46%
    19:00 +12°C° 0 mm 5 mps 665 mmHg 50%
    20:00 +10°C° 0 mm 5 mps 665 mmHg 53%
    21:00 +9°C° 0 mm 5 mps 665 mmHg 57%
    22:00 +10°C° 0 mm 4 mps 665 mmHg 61%
    23:00 +8°C° 0 mm 4 mps 664 mmHg 65%

    25 March, Monday

    Time Temperature Precipitation Wind Pressure Humidity
    00:00 +7°C° 0 mm 4 mps 664 mmHg 69%
    01:00 +8°C° 0 mm 3 mps 664 mmHg 74%
    02:00 +7°C° 0 mm 3 mps 663 mmHg 78%
    03:00 +7°C° 0 mm 2 mps 663 mmHg 83%
    04:00 +7°C° 0 mm 2 mps 663 mmHg 86%
    05:00 +6°C° 0 mm 2 mps 663 mmHg 88%
    06:00 +6°C° 0 mm 2 mps 663 mmHg 90%
    07:00 +8°C° 0 mm 2 mps 664 mmHg 80%
    08:00 +9°C° 0 mm 3 mps 664 mmHg 70%
    09:00 +11°C° 0 mm 3 mps 665 mmHg 60%
    10:00 +13°C° 0 mm 4 mps 665 mmHg 53%
    11:00 +14°C° 0 mm 4 mps 665 mmHg 46%
    12:00 +15°C° 0 mm 4 mps 665 mmHg 39%
    13:00 +16°C° 0 mm 3 mps 665 mmHg 38%
    14:00 +17°C° 0 mm 3 mps 664 mmHg 36%
    15:00 +17°C° 0 mm 3 mps 664 mmHg 35%
    16:00 +17°C° 0 mm 3 mps 664 mmHg 37%
    17:00 +16°C° 0 mm 3 mps 664 mmHg 38%
    18:00 +16°C° 0 mm 3 mps 664 mmHg 40%
    19:00 +14°C° 0 mm 4 mps 664 mmHg 43%
    20:00 +13°C° 0 mm 4 mps 664 mmHg 47%
    21:00 +12°C° 0 mm 4 mps 665 mmHg 50%
    22:00 +11°C° 0 mm 4 mps 664 mmHg 52%
    23:00 +11°C° 0 mm 4 mps 664 mmHg 54%
    Show more